When you browse on this site, cookies collect data to enhance your experience and personalize the content and advertising you see.
Visit our Privacy Policy to learn more. By continuing to use the site, you agree to this use of cookies and data.
  • In Hungary
  • List of Countries
  • For 7 days
  • Water Temperature
  • Weather Map
  • News
  • Weather Widgets
  • user-avatar
    Login

    Hourly Weather Pietkow

    Today, 14 December, Saturday

    Time Temperature Precipitation Wind Pressure Humidity
    00:00 -1°C° 0 mm 6 mps 724 mmHg 81%
    01:00 -1°C° 0 mm 6 mps 724 mmHg 81%
    02:00 -1°C° 0 mm 6 mps 724 mmHg 82%
    03:00 -1°C° 0 mm 6 mps 724 mmHg 83%
    04:00 -1°C° 0 mm 6 mps 725 mmHg 84%
    05:00 -1°C° 0 mm 6 mps 725 mmHg 84%
    06:00 -1°C° 0 mm 6 mps 725 mmHg 84%
    07:00 -1°C° 0 mm 6 mps 725 mmHg 84%
    08:00 +1°C° 0 mm 6 mps 726 mmHg 82%
    09:00 +1°C° 0 mm 6 mps 726 mmHg 80%
    10:00 +1°C° 0 mm 6 mps 726 mmHg 78%
    11:00 +2°C° 0 mm 6 mps 726 mmHg 76%
    12:00 +3°C° 0 mm 6 mps 726 mmHg 73%
    13:00 +3°C° 0 mm 5 mps 726 mmHg 69%
    14:00 +3°C° 0 mm 5 mps 726 mmHg 71%
    15:00 +3°C° 0 mm 6 mps 726 mmHg 72%
    16:00 +2°C° 0 mm 6 mps 725 mmHg 74%
    17:00 +3°C° 0.4 mm 7 mps 726 mmHg 75%
    18:00 +2°C° 0.4 mm 8 mps 727 mmHg 77%
    19:00 +2°C° 0.4 mm 10 mps 727 mmHg 78%
    20:00 +1°C° 0 mm 9 mps 728 mmHg 79%
    21:00 +1°C° 0 mm 8 mps 729 mmHg 80%
    22:00 +1°C° 0 mm 8 mps 730 mmHg 80%
    23:00 +2°C° 0 mm 7 mps 730 mmHg 79%

    Tomorrow, 15 December, Sunday

    Time Temperature Precipitation Wind Pressure Humidity
    00:00 +1°C° 0 mm 6 mps 731 mmHg 77%
    01:00 +1°C° 0 mm 6 mps 731 mmHg 75%
    02:00 +1°C° 0.1 mm 6 mps 732 mmHg 77%
    03:00 +2°C° 0.1 mm 7 mps 732 mmHg 79%
    04:00 +2°C° 0.1 mm 7 mps 733 mmHg 81%
    05:00 0°C° 0 mm 7 mps 733 mmHg 78%
    06:00 +1°C° 0 mm 6 mps 734 mmHg 76%
    07:00 +1°C° 0 mm 6 mps 734 mmHg 74%
    08:00 +1°C° 0 mm 6 mps 734 mmHg 73%
    09:00 +2°C° 0 mm 6 mps 735 mmHg 71%
    10:00 +2°C° 0 mm 6 mps 735 mmHg 70%
    11:00 +3°C° 0.1 mm 6 mps 735 mmHg 73%
    12:00 +3°C° 0.1 mm 6 mps 734 mmHg 77%
    13:00 +4°C° 0.1 mm 7 mps 734 mmHg 81%
    14:00 +5°C° 0.3 mm 7 mps 734 mmHg 79%
    15:00 +5°C° 0.3 mm 8 mps 734 mmHg 78%
    16:00 +6°C° 0.3 mm 8 mps 734 mmHg 76%
    17:00 +6°C° 0.4 mm 7 mps 735 mmHg 78%
    18:00 +7°C° 0.4 mm 6 mps 736 mmHg 80%
    19:00 +6°C° 0.4 mm 5 mps 736 mmHg 82%
    20:00 +6°C° 0 mm 5 mps 737 mmHg 81%
    21:00 +5°C° 0 mm 5 mps 738 mmHg 81%
    22:00 +5°C° 0 mm 5 mps 739 mmHg 80%
    23:00 +5°C° 0 mm 5 mps 739 mmHg 81%

    Day after tomorrow, 16 December, Monday

    Time Temperature Precipitation Wind Pressure Humidity
    00:00 +5°C° 0 mm 4 mps 740 mmHg 83%
    01:00 +5°C° 0 mm 4 mps 740 mmHg 84%
    02:00 +5°C° 0 mm 4 mps 740 mmHg 86%
    03:00 +4°C° 0 mm 3 mps 741 mmHg 88%
    04:00 +4°C° 0 mm 3 mps 741 mmHg 90%
    05:00 +4°C° 0 mm 3 mps 741 mmHg 90%
    06:00 +3°C° 0 mm 3 mps 741 mmHg 91%
    07:00 +4°C° 0 mm 2 mps 741 mmHg 91%
    08:00 +4°C° 0 mm 2 mps 742 mmHg 88%
    09:00 +4°C° 0 mm 3 mps 742 mmHg 86%
    10:00 +4°C° 0 mm 3 mps 742 mmHg 83%
    11:00 +5°C° 0 mm 3 mps 742 mmHg 79%
    12:00 +7°C° 0 mm 3 mps 741 mmHg 75%
    13:00 +7°C° 0 mm 3 mps 741 mmHg 71%
    14:00 +7°C° 0 mm 3 mps 741 mmHg 74%
    15:00 +7°C° 0 mm 3 mps 741 mmHg 76%
    16:00 +5°C° 0 mm 3 mps 741 mmHg 79%
    17:00 +5°C° 0 mm 3 mps 741 mmHg 80%
    18:00 +5°C° 0 mm 4 mps 741 mmHg 81%
    19:00 +5°C° 0 mm 4 mps 740 mmHg 81%
    20:00 +5°C° 0 mm 4 mps 740 mmHg 82%
    21:00 +5°C° 0 mm 4 mps 740 mmHg 83%
    22:00 +5°C° 0 mm 4 mps 740 mmHg 84%
    23:00 +5°C° 0 mm 4 mps 740 mmHg 84%

    17 December, Tuesday

    Time Temperature Precipitation Wind Pressure Humidity
    00:00 +5°C° 0 mm 4 mps 740 mmHg 85%
    01:00 +5°C° 0 mm 4 mps 739 mmHg 85%
    02:00 +5°C° 0 mm 4 mps 739 mmHg 86%
    03:00 +5°C° 0 mm 4 mps 739 mmHg 86%
    04:00 +4°C° 0 mm 4 mps 739 mmHg 86%
    05:00 +4°C° 0 mm 4 mps 739 mmHg 87%
    06:00 +4°C° 0 mm 4 mps 739 mmHg 88%
    07:00 +4°C° 0 mm 4 mps 738 mmHg 89%
    08:00 +5°C° 0 mm 3 mps 739 mmHg 87%
    09:00 +5°C° 0 mm 3 mps 739 mmHg 86%
    10:00 +7°C° 0 mm 3 mps 739 mmHg 85%
    11:00 +7°C° 0 mm 3 mps 739 mmHg 82%
    12:00 +8°C° 0 mm 3 mps 739 mmHg 79%
    13:00 +8°C° 0 mm 3 mps 739 mmHg 76%
    14:00 +8°C° 0 mm 3 mps 739 mmHg 78%
    15:00 +8°C° 0 mm 3 mps 739 mmHg 80%
    16:00 +7°C° 0 mm 3 mps 739 mmHg 82%
    17:00 +7°C° 0 mm 3 mps 739 mmHg 82%
    18:00 +7°C° 0 mm 3 mps 739 mmHg 83%
    19:00 +6°C° 0 mm 4 mps 739 mmHg 84%
    20:00 +6°C° 0 mm 4 mps 739 mmHg 86%
    21:00 +6°C° 0 mm 4 mps 739 mmHg 88%
    22:00 +5°C° 0 mm 4 mps 739 mmHg 90%
    23:00 +5°C° 0 mm 4 mps 739 mmHg 91%

    18 December, Wednesday

    Time Temperature Precipitation Wind Pressure Humidity
    00:00 +5°C° 0 mm 3 mps 739 mmHg 92%
    01:00 +5°C° 0 mm 3 mps 739 mmHg 93%
    02:00 +5°C° 0 mm 3 mps 740 mmHg 92%
    03:00 +5°C° 0 mm 3 mps 740 mmHg 92%
    04:00 +5°C° 0 mm 3 mps 740 mmHg 92%
    05:00 +5°C° 0 mm 3 mps 740 mmHg 91%
    06:00 +5°C° 0 mm 3 mps 740 mmHg 90%
    07:00 +5°C° 0 mm 3 mps 740 mmHg 89%
    08:00 +5°C° 0 mm 3 mps 741 mmHg 87%
    09:00 +7°C° 0 mm 3 mps 741 mmHg 86%
    10:00 +7°C° 0 mm 4 mps 741 mmHg 84%
    11:00 +8°C° 0 mm 3 mps 741 mmHg 83%
    12:00 +9°C° 0 mm 3 mps 741 mmHg 81%
    13:00 +10°C° 0 mm 3 mps 741 mmHg 80%
    14:00 +9°C° 0 mm 3 mps 741 mmHg 83%
    15:00 +8°C° 0 mm 3 mps 741 mmHg 86%
    16:00 +8°C° 0 mm 3 mps 741 mmHg 88%
    17:00 +7°C° 0 mm 3 mps 741 mmHg 89%
    18:00 +7°C° 0 mm 3 mps 741 mmHg 90%
    19:00 +7°C° 0 mm 3 mps 742 mmHg 91%
    20:00 +5°C° 0 mm 3 mps 742 mmHg 91%
    21:00 +5°C° 0 mm 3 mps 742 mmHg 92%
    22:00 +5°C° 0 mm 3 mps 742 mmHg 92%
    23:00 +6°C° 0 mm 2 mps 742 mmHg 91%

    19 December, Thursday

    Time Temperature Precipitation Wind Pressure Humidity
    00:00 +5°C° 0 mm 2 mps 742 mmHg 91%
    01:00 +6°C° 0 mm 1 mps 741 mmHg 90%
    02:00 +6°C° 0 mm 1 mps 741 mmHg 90%
    03:00 +6°C° 0 mm 1 mps 741 mmHg 91%
    04:00 +6°C° 0 mm 1 mps 741 mmHg 91%
    05:00 +6°C° 0 mm 1 mps 741 mmHg 91%
    06:00 +6°C° 0 mm 1 mps 741 mmHg 91%
    07:00 +5°C° 0 mm 0 mps 741 mmHg 92%
    08:00 +7°C° 0 mm 1 mps 741 mmHg 91%
    09:00 +7°C° 0 mm 1 mps 741 mmHg 90%
    10:00 +7°C° 0 mm 2 mps 742 mmHg 90%
    11:00 +7°C° 0 mm 2 mps 741 mmHg 88%
    12:00 +8°C° 0 mm 2 mps 741 mmHg 86%
    13:00 +8°C° 0 mm 2 mps 741 mmHg 84%
    14:00 +8°C° 0 mm 2 mps 740 mmHg 84%
    15:00 +7°C° 0 mm 2 mps 740 mmHg 85%
    16:00 +7°C° 0 mm 2 mps 740 mmHg 86%
    17:00 +7°C° 0 mm 2 mps 740 mmHg 86%
    18:00 +7°C° 0 mm 3 mps 740 mmHg 85%
    19:00 +7°C° 0 mm 3 mps 740 mmHg 85%
    20:00 +7°C° 0 mm 3 mps 740 mmHg 85%
    21:00 +7°C° 0 mm 3 mps 739 mmHg 85%
    22:00 +6°C° 0 mm 4 mps 739 mmHg 85%
    23:00 +6°C° 0.2 mm 4 mps 739 mmHg 86%
    Show more